Tokyo Downtown, Japan

2:18 PM JST on October 16, 2019 (GMT +0900)
Tokyo Downtown

Weather History for RJTD - August, 2019

Change the Weather History Date:

Wednesday, August 7, 2019

  Actual Average (WUND) Record (WUND)
Temperature  
Mean Temperature 88 °F -  
Max Temperature 96 °F 86 °F - (-1)
Min Temperature 80 °F 73 °F - (-1)
Cooling Degree Days 23    
Growing Degree Days 38 (Base 50)    
Moisture  
Dew Point 77 °F    
Average Humidity 69    
Maximum Humidity 85    
Minimum Humidity 51    
Precipitation  
Precipitation 0.00 in 0.20 in - ()
Sea Level Pressure  
Sea Level Pressure 29.83 in    
Wind  
Wind Speed 5 mph ()    
Max Wind Speed 13 mph    
Max Gust Speed -    
Visibility 13.9 miles    
Events      
Averages and records for this station are not official NWS values.
T = Trace of Precipitation, MM = Missing Value Source: Averaged Metar Reports

Daily Weather History Graph

Daily Weather History Graph

Search for Another Location

Airport or City:

Astronomy

Aug. 07, 2019 Rise Set
Actual Time 4:52 AM JST 6:40 PM JST
Civil Twilight 4:25 AM JST 7:07 PM JST
Nautical Twilight 3:51 AM JST 7:41 PM JST
Astronomical Twilight 3:16 AM JST 8:16 PM JST
Moon 11:29 AM JST (8/7) 10:51 PM JST (8/7)
Length of Visible Light 14h 42m
Length of Day
13h 47m
Waxing Crescent, 43% of the Moon is Illuminated
Aug 7
Waxing Crescent
Aug 8
First Quarter
Aug 15
Full
Aug 23
Last Quarter
Aug 30
New

Hourly Weather History & Observations

Time (JST) Temp. Dew Point Humidity Pressure Visibility Wind Dir Wind Speed Gust Speed Precip Events Conditions
12:00 AM 83 °F 75 °F 71% 29.83 in - South 5.8 mph - -  
1:00 AM 83 °F 75 °F 72% 29.84 in - SSW 4.6 mph - -  
2:00 AM 82 °F 76 °F 78% 29.85 in - SW 3.5 mph - -  
3:00 AM 82 °F 76 °F 78% 29.86 in 9 mi SSW 5.8 mph - -   Scattered Clouds
4:00 AM 82 °F 76 °F 78% 29.86 in - SSW 4.6 mph - -  
5:00 AM 80 °F 76 °F 85% 29.88 in - South 3.5 mph - -  
6:00 AM 82 °F 77 °F 80% 29.88 in 12 mi SSW 5.8 mph - -   Scattered Clouds
6:00 AM - - N/A% - - North - - N/A   Unknown
8:00 AM 87 °F 77 °F 66% 29.88 in - SSE 4.6 mph - -  
9:00 AM 90 °F 77 °F 58% 29.86 in 16 mi SSE 3.5 mph - -   Scattered Clouds
11:00 AM 93 °F 77 °F 51% 29.83 in - SSE 10.4 mph - -  
12:00 PM 93 °F 78 °F 55% 29.82 in 16 mi SE 8.1 mph - -   Scattered Clouds
1:00 PM 94 °F 79 °F 54% 29.81 in - SE 11.5 mph - -  
3:00 PM 94 °F 78 °F 52% 29.78 in 16 mi SE 12.7 mph - -   Scattered Clouds
4:00 PM 90 °F 76 °F 57% 29.78 in - South 9.2 mph - -  
6:00 PM 87 °F 77 °F 65% 29.80 in 16 mi South 11.5 mph - -   Scattered Clouds
7:00 PM 85 °F 77 °F 71% 29.82 in - South 6.9 mph - -  
8:00 PM 84 °F 78 °F 76% 29.83 in - South 5.8 mph - -  
9:00 PM 83 °F 78 °F 80% 29.83 in 12 mi SSE 5.8 mph - -   Clear
10:00 PM 83 °F 77 °F 76% 29.83 in - South 5.8 mph - -  
10:00 PM - - N/A% - - North - - N/A   Unknown
11:00 PM 82 °F 77 °F 79% 29.83 in - South 4.6 mph - -